Edwards AFB North Base, CA

7:31 PM PDT on August 24, 2019 (GMT -0700)
Edwards AFB North Base

Weather History for K9L2 - May, 2019

Change the Weather History Date:

Monday, May 13, 2019

  Actual Average (KEDW) Record (KEDW)
Temperature  
Mean Temperature 70 °F -  
Max Temperature 87 °F 80 °F 99 °F (2013)
Min Temperature 55 °F 50 °F 41 °F (1998)
Cooling Degree Days 6    
Growing Degree Days 20 (Base 50)    
Moisture  
Dew Point 42 °F    
Average Humidity 37    
Maximum Humidity 77    
Minimum Humidity 17    
Precipitation  
Precipitation 0.00 in - - ()
Sea Level Pressure  
Sea Level Pressure 29.88 in    
Wind  
Wind Speed 10 mph (SSW)    
Max Wind Speed 20 mph    
Max Gust Speed 26 mph    
Visibility 9 miles    
Events      
Averages and records for this station are not official NWS values.
T = Trace of Precipitation, MM = Missing Value Source: NWS Daily Summary

Daily Weather History Graph

Daily Weather History Graph

Search for Another Location

Airport or City:

Astronomy

May. 13, 2019 Rise Set
Actual Time 5:49 AM PDT 7:46 PM PDT
Civil Twilight 5:21 AM PDT 8:14 PM PDT
Nautical Twilight 4:47 AM PDT 8:48 PM PDT
Astronomical Twilight 4:11 AM PDT 9:24 PM PDT
Moon 2:20 PM PDT (5/13) 2:52 AM PDT (5/13)
Length of Visible Light 14h 52m
Length of Day
13h 56m
Waxing Gibbous, 70% of the Moon is Illuminated
May 13
Waxing Gibbous
May 18
Full
May 26
Last Quarter
Jun 3
New
Jun 9
First Quarter

Hourly Weather History & Observations

Time (PDT) Temp. Dew Point Humidity Pressure Visibility Wind Dir Wind Speed Gust Speed Precip Events Conditions
12:58 AM 62.8 °F 47.5 °F 57% 29.87 in 10.0 mi South 11.5 mph - N/A   Clear
1:58 AM 60.3 °F 48.0 °F 64% 29.87 in 10.0 mi South 9.2 mph - N/A   Clear
2:58 AM 59.9 °F 47.8 °F 64% 29.87 in 10.0 mi South 10.4 mph - N/A   Clear
3:58 AM 58.6 °F 47.7 °F 67% 29.87 in 10.0 mi South 10.4 mph - N/A   Clear
4:58 AM 57.2 °F 48.2 °F 72% 29.87 in 10.0 mi South 11.5 mph - N/A   Clear
5:58 AM 55.4 °F 48.2 °F 77% 29.89 in 10.0 mi SE 5.8 mph - N/A   Clear
7:58 AM 65.5 °F 48.9 °F 55% 29.91 in 9.0 mi SE 9.2 mph - N/A   Clear
8:58 AM 73.6 °F 46.9 °F 39% 29.91 in 9.0 mi SSE 6.9 mph - N/A   Clear
9:58 AM 77.4 °F 42.8 °F 29% 29.91 in 8.0 mi ESE 6.9 mph - N/A   Clear
10:43 AM 78.8 °F 42.8 °F 28% 29.90 in 7.0 mi ENE 4.6 mph - N/A   Clear
10:58 AM 79.9 °F 41.7 °F 26% 29.90 in 9.0 mi Calm Calm - N/A   Clear
11:58 AM 82.8 °F 41.0 °F 23% 29.89 in 9.0 mi Calm Calm - N/A   Partly Cloudy
12:58 PM 84.9 °F 35.4 °F 17% 29.88 in 8.0 mi SW 9.2 mph - N/A   Partly Cloudy
1:58 PM 86.9 °F 36.7 °F 17% 29.86 in 9.0 mi SW 8.1 mph - N/A   Clear
2:58 PM 86.9 °F 38.8 °F 18% 29.85 in 9.0 mi WSW 10.4 mph 23.0 mph N/A   Clear
3:58 PM 85.3 °F 37.2 °F 18% 29.84 in 8.0 mi WSW 19.6 mph 24.2 mph N/A   Partly Cloudy
4:58 PM 86.2 °F 37.8 °F 18% 29.83 in 8.0 mi WSW 15.0 mph 21.9 mph N/A   Clear
5:58 PM 83.5 °F 37.4 °F 19% 29.85 in 8.0 mi WSW 19.6 mph 26.5 mph N/A   Clear
6:28 PM 82.4 °F 39.2 °F 21% 29.85 in 6.0 mi WSW 16.1 mph - N/A   Haze
6:43 PM 80.6 °F 39.2 °F 23% 29.86 in 7.0 mi WSW 17.3 mph - N/A   Clear
6:58 PM 79.5 °F 38.5 °F 23% 29.86 in 7.0 mi West 12.7 mph - N/A   Clear
7:58 PM 74.3 °F 36.9 °F 26% 29.88 in 7.0 mi SSW 5.8 mph - N/A   Clear
8:58 PM 72.9 °F 36.0 °F 26% 29.88 in 10.0 mi SW 10.4 mph - N/A   Clear
9:58 PM 68.2 °F 42.1 °F 39% 29.90 in 10.0 mi SSW 11.5 mph - N/A   Clear
10:58 PM 65.8 °F 40.8 °F 40% 29.91 in 10.0 mi South 9.2 mph - N/A   Clear
11:58 PM 62.4 °F 41.2 °F 46% 29.90 in 10.0 mi South 10.4 mph - N/A   Clear